Location: U-46 Planetarium
(42.0300°N, 88.2740°W)
Time: 22:58:28
(UTC-05:00)

Cosmos 1975 - Pass Details

Date: 16 December 2017
Orbit: 543 x 563 km, 82.5° (Epoch: 20 April)

Event Time Altitude Azimuth Distance (km) Brightness Sun altitude
Rises 16:52:42 0° 351° (N) 2,734 6.2 -5.7°
Reaches altitude 10° 16:54:52 10° 351° (N) 1,839 5.3 -6.1°
Maximum altitude 16:58:55 86° 262° (W) 562 2.9 -6.7°
Drops below altitude 10° 17:02:58 10° 175° (S) 1,836 5.8 -7.4°
Sets 17:05:07 0° 175° (S) 2,729 6.6 -7.8°
